Погода в Фозилмон

Узбекистан     40°48′59″N   72°59′14″E
темп.,
°C
ветер,
м/с
пор.,
м/с
влажн.,
%
обл.,
%
осадки,
мм/ч
давл.,
гПа
погр.,
м
3 марта, ср
ср323:00+6всв2358100 0.0 102659
02:00+5в2262100 0.0 102438
05:00+5всв2263100 0.0 102448
08:00+5вюв1283100 0.1 1024167
11:00+5вюв2289100 0.7 1022264
14:00+5всв2187100 0.1 1020251
17:00+6в2383100 0.2 1021259
20:00+4всв3487100 0.1 1024106
4 марта, чт
чт423:00+4всв2276100 0.1 102542
02:00+4в227090 0.0 102522
05:00+4в226591 0.0 102523
08:00+5в1258100 0.0 102653
11:00+10св223880 0.0 1022600
14:00+13ссв223498 0.0 1019969
17:00+12сз334499 0.0 1019525
20:00+8зюз126295 0.0 102351
5 марта, пт
пт523:00+7в126697 0.0 1024105
02:00+7вюв1166100 0.0 102457
05:00+6вюв3485100 1.9 1024227
08:00+6юз3788100 2.3 1027464
11:00+9з3456100 2.6 10261157
14:00+8ссв2267100 0.1 1024658
17:00+9ссв2366100 0.1 1025527
20:00+6всв227436 0.0 102830
6 марта, сб
сб623:00+5вюв126618 0.0 102922
02:00+4в33550 0.0 102739
05:00+3в225328 0.0 102525
08:00+4в2250100 0.0 102374
11:00+11св3431100 0.0 1015561
14:00+14ссз323099 0.0 1011746
17:00+12ссз233799 0.0 1012345
20:00+8ссз1151100 0.0 101524
7 марта, вс
вс723:00+8вюв1151100 0.0 101724
02:00+6ссв2259100 0.0 101754
05:00+5ююз1164100 0.0 101722
08:00+6з2563100 0.0 1017377
11:00+8з2255100 0.0 1016812
14:00+10сз1147100 0.0 10141164
17:00+10ссз2147100 0.0 10151093
20:00+7всв236319 0.0 101845